Location: Schommer Observatory
(40.5200°N, 74.4500°W)
Time: 13:55:50
(UTC-04:00)

ISS - Pass Details

Date: 25 May 2018
Orbit: 402 x 408 km, 51.6° (Epoch: 19 September)

Event Time Altitude Azimuth Distance (km) Brightness Sun altitude
Rises 22:10:07 0° 285° (WNW) 2,320 1.0 -17.5°
Reaches altitude 10° 22:12:54 10° 311° (NW) 1,460 0.2 -17.8°
Maximum altitude 22:14:49 15° 347° (NNW) 1,217 -0.5 -18.0°
Drops below altitude 10° 22:16:44 10° 23° (NNE) 1,459 -0.7 -18.3°
Sets 22:19:31 0° 49° (NE) 2,319 0.1 -18.6°
